Location: Krasnoyarskiy Pitomnik
(51.1333°N, 71.6167°E)
Time: 06:41:21
(UTC+00:00)

Transit 4A - Pass Details

Date: 18 April 2024
Orbit: 871 x 971 km, 66.8° (Epoch: 28 May)

Event Time Altitude Azimuth Distance (km) Brightness Sun altitude
Rises 18:34:08 0° 312° (NW) 3,469 11.7 -27.1°
Reaches altitude 10° 18:37:31 10° 292° (WNW) 2,528 10.5 -27.2°
Maximum altitude 18:40:59 16° 255° (WSW) 2,103 9.7 -27.3°
Enters shadow 18:41:08 16° 254° (WSW) 2,104 9.7 -27.3°
